Location: Sternwarte Stuttgart
(48.7824°N, 9.1965°E)
Time: 13:34:42
(UTC+00:00)

ISS - Pass Details

Date: 26 April 2025
Orbit: 416 x 420 km, 51.6° (Epoch: 15 May)

Event Time Altitude Azimuth Distance (km) Brightness Sun altitude
Exits shadow 02:31:51 33° 223° (SW) 728 -3.1 -14.8°
Maximum altitude 02:33:08 63° 154° (SSE) 471 -3.7 -14.6°
Drops below altitude 10° 02:36:28 10° 72° (ENE) 1,498 0.1 -14.2°
Sets 02:38:35 0° 69° (ENE) 2,364 1.5 -13.9°
